Poughkeepsie, NY

6:19 PM EDT on March 23, 2017 (GMT -0400)
Dutchess County

Weather History for KPOU - October, 2012

Change the Weather History Date:

Tuesday, October 23, 2012

  Actual Average Record
Temperature  
Mean Temperature 47 °F 48 °F  
Max Temperature 54 °F 61 °F 78 °F (1979)
Min Temperature 40 °F 37 °F 22 °F (1982)
Degree Days  
Heating Degree Days 18 16  
Month to date heating degree days 243 295  
Since 1 July heating degree days 343 435  
Cooling Degree Days 0 0  
Month to date cooling degree days 6 0  
Year to date cooling degree days 895 668  
Moisture  
Dew Point 47 °F    
Average Humidity 85    
Maximum Humidity 93    
Minimum Humidity 77    
Precipitation  
Precipitation 0.25 in 0.15 in 2.57 in (1990)
Month to date precipitation 3.33 3.41  
Year to date precipitation 31.11 38.47  
Sea Level Pressure  
Sea Level Pressure 30.09 in    
Wind  
Wind Speed 0 mph (North)    
Max Wind Speed 6 mph    
Max Gust Speed 7 mph    
Visibility 6 miles    
Events Rain    
T = Trace of Precipitation, MM = Missing Value Source: NWS Daily Summary

Daily Weather History Graph

Daily Weather History Graph

Search for Another Location

Airport or City:

Trip Planner

Search our weather history database for the weather conditions in past years. The results will help you decide how hot, cold, wet, or windy it might be!

Date:

Astronomy

Oct. 23, 2012 Rise Set
Actual Time 7:17 AM EDT 6:01 PM EDT
Civil Twilight 6:48 AM EDT 6:29 PM EDT
Nautical Twilight 6:16 AM EDT 7:02 PM EDT
Astronomical Twilight 5:44 AM EDT 7:34 PM EDT
Moon 2:48 PM EDT 1:01 AM EDT
Length of Visible Light 11h 40m
Length of Day
10h 44m
Waxing Gibbous, 66% of the Moon is Illuminated
Oct 23
Waxing Gibbous
Oct 29
Full
Nov 6
Last Quarter
Nov 13
New
Nov 20
First Quarter

Hourly Weather History & Observations

Time (EDT) Temp. Dew Point Humidity Pressure Visibility Wind Dir Wind Speed Gust Speed Precip Events Conditions
12:53 AM 44.1 °F 41.0 °F 89% 30.05 in 10.0 mi Calm Calm - N/A   Clear
1:53 AM 44.1 °F 41.0 °F 89% 30.06 in 10.0 mi Calm Calm - N/A   Clear
3:53 AM 42.1 °F 39.0 °F 89% 30.05 in 10.0 mi Calm Calm - N/A   Clear
4:53 AM 41.0 °F 37.9 °F 89% 30.07 in 10.0 mi Calm Calm - N/A   Clear
5:53 AM 41.0 °F 39.0 °F 93% 30.09 in 10.0 mi Calm Calm - N/A   Clear
6:53 AM 42.1 °F 39.0 °F 89% 30.10 in 10.0 mi Calm Calm - N/A   Clear
9:53 AM 52.0 °F 44.1 °F 74% 30.12 in 10.0 mi Calm Calm - N/A   Scattered Clouds
10:53 AM 53.1 °F 45.0 °F 74% 30.12 in 10.0 mi Calm Calm - 0.00 in Rain Light Rain
11:53 AM 54.0 °F 46.0 °F 75% 30.12 in 10.0 mi Calm Calm - 0.01 in Rain Light Rain
12:53 PM 54.0 °F 48.0 °F 80% 30.12 in 7.0 mi Calm Calm - 0.00 in Rain Light Rain
1:53 PM 53.1 °F 48.0 °F 83% 30.09 in 8.0 mi Calm Calm - 0.02 in Rain Light Rain
2:53 PM 53.1 °F 50.0 °F 89% 30.08 in 6.0 mi Calm Calm - 0.02 in Rain Light Rain
3:17 PM 53.6 °F 48.2 °F 82% 30.08 in 7.0 mi Calm Calm - 0.01 in Rain Light Rain
3:53 PM 53.1 °F 50.0 °F 89% 30.07 in 9.0 mi Calm Calm - 0.02 in Rain Light Rain
4:53 PM 53.1 °F 50.0 °F 89% 30.08 in 2.0 mi Calm Calm - 0.03 in Rain Rain
5:02 PM 53.6 °F 50.0 °F 88% 30.08 in 8.0 mi Calm Calm - 0.00 in   Overcast
5:19 PM 53.6 °F 50.0 °F 88% 30.08 in 2.0 mi Calm Calm - 0.02 in Rain Rain
5:53 PM 53.1 °F 50.0 °F 89% 30.08 in 6.0 mi Calm Calm - 0.04 in Rain Light Rain
6:53 PM 53.1 °F 50.0 °F 89% 30.07 in 5.0 mi Calm Calm - 0.01 in Rain Light Rain
7:53 PM 53.1 °F 51.1 °F 93% 30.08 in 3.0 mi Calm Calm - 0.04 in Rain Light Rain
8:53 PM 53.1 °F 51.1 °F 93% 30.10 in 3.0 mi Calm Calm - 0.01 in Rain Light Rain
9:20 PM 53.6 °F 50.0 °F 88% 30.11 in 2.5 mi Calm Calm - 0.01 in Rain Light Rain
9:35 PM 53.6 °F 51.8 °F 94% 30.11 in 2.5 mi Calm Calm - 0.01 in Rain Light Rain
9:53 PM 53.1 °F 50.0 °F 89% 30.10 in 3.0 mi Calm Calm - 0.01 in   Overcast
10:53 PM 52.0 °F 50.0 °F 93% 30.10 in 3.0 mi Calm Calm - 0.02 in Rain Light Rain
11:04 PM 51.8 °F 50.0 °F 94% 30.11 in 2.5 mi Calm Calm - 0.00 in Rain Light Rain
11:34 PM 51.8 °F 50.0 °F 94% 30.11 in 2.5 mi Calm Calm - 0.01 in Rain Light Rain
11:53 PM 52.0 °F 50.0 °F 93% 30.10 in 2.5 mi Calm Calm - 0.01 in   Overcast